WA4FG Weather Reports


Display with metric or nautical units.
time (UTC)temp
F
wind
direction
speed
MPH
gust
MPH
rain 1hr
in
rain 24hr
in
rain mn
in
humidity
%
barometer
mb
20260905052940 78 274 0.0 0.0 0.00 0.00 0.00 90 1013.6
20260905052436 78 274 0.0 0.0 0.00 0.00 0.00 90 1013.7
20260905051926 78 274 0.0 0.0 0.00 0.00 0.00 90 1013.8
20260905051401 78 274 0.0 0.0 0.00 0.00 0.00 89 1013.8
20260905050835 78 274 0.0 0.0 0.00 0.00 0.00 89 1013.7
20260905050326 78 274 0.0 0.0 0.00 0.00 0.00 89 1013.7
20260905045321 78 274 0.0 0.0 0.00 0.00 0.00 90 1013.8
20260905044809 78 274 0.0 0.0 0.00 0.00 0.00 89 1013.8
20260905044250 78 274 0.0 0.0 0.00 0.00 0.00 89 1013.8
20260905043740 79 274 0.0 0.0 0.00 0.00 0.00 89 1013.9
20260905043233 79 274 0.0 0.0 0.00 0.00 0.00 89 1013.9
20260905042711 79 274 0.0 0.0 0.00 0.00 0.00 89 1013.8
20260905042208 79 274 0.0 0.0 0.00 0.00 0.00 89 1013.8
20260905041655 79 274 0.0 0.0 0.00 0.00 0.00 88 1013.7
20260905041134 79 274 0.0 0.0 0.00 0.00 0.00 88 1013.9
20260905040042 79 274 0.0 0.0 0.00 0.00 0.00 88 1013.8
20260905035520 79 274 0.0 0.0 0.00 0.00 0.00 88 1013.9
20260905034948 79 274 0.0 0.0 0.00 0.00 0.00 87 1013.8
20260905034442 79 274 0.0 0.0 0.00 0.00 0.00 86 1013.8
20260905033915 80 274 0.0 0.0 0.00 0.00 0.00 86 1013.8
20260905033412 80 274 0.0 0.0 0.00 0.00 0.00 86 1013.8
20260905032913 80 274 0.0 0.0 0.00 0.00 0.00 86 1013.8
20260905032411 80 274 0.0 0.0 0.00 0.00 0.00 86 1013.8
20260905031910 80 274 0.0 0.0 0.00 0.00 0.00 85 1013.9
20260905030846 80 274 0.0 0.0 0.00 0.00 0.00 85 1013.9
20260905030316 80 274 0.0 0.0 0.00 0.00 0.00 86 1014.0
20260905025757 80 274 0.0 0.0 0.00 0.00 0.00 86 1014.1
20260905025257 80 274 0.0 0.0 0.00 0.00 0.00 85 1014.2
20260905024755 80 274 0.0 0.0 0.00 0.00 0.00 85 1014.3
20260905024257 80 274 0.0 0.0 0.00 0.00 0.00 85 1014.3
20260905023731 80 274 0.0 0.0 0.00 0.00 0.00 85 1014.3
20260905023202 81 274 0.0 0.0 0.00 0.00 0.00 84 1014.3
20260905022701 81 274 0.0 0.0 0.00 0.00 0.00 83 1014.2
20260905022157 81 274 0.0 0.0 0.00 0.00 0.00 83 1014.3
20260905021143 81 274 0.0 0.0 0.00 0.00 0.00 82 1014.1
20260905020626 82 274 0.0 0.0 0.00 0.00 0.00 82 1014.1
20260905020127 82 274 0.0 0.0 0.00 0.00 0.00 81 1014.1
20260905015629 82 274 0.0 0.0 0.00 0.00 0.00 81 1014.1
20260905015102 82 274 0.0 0.0 0.00 0.00 0.00 80 1014.0
20260905014539 82 274 0.0 0.0 0.00 0.00 0.00 78 1013.9
20260905014039 83 274 0.0 0.0 0.00 0.00 0.00 78 1013.9
20260905013010 83 274 0.0 0.0 0.00 0.00 0.00 77 1013.8
20260905012442 84 274 0.0 0.0 0.00 0.00 0.00 77 1013.9
20260905011415 84 274 0.0 0.0 0.00 0.00 0.00 75 1013.6
20260905010905 84 274 0.0 0.0 0.00 0.00 0.00 74 1013.6
20260905005850 85 274 0.0 0.0 0.00 0.00 0.00 73 1013.5
20260905004819 86 274 0.0 0.0 0.00 0.00 0.00 74 1013.5
20260905004321 86 274 0.0 0.0 0.00 0.00 0.00 71 1013.5
20260905003802 86 274 0.0 0.0 0.00 0.00 0.00 71 1013.5
20260905003236 87 274 0.0 0.0 0.00 0.00 0.00 70 1013.5
20260905002219 88 274 0.0 0.0 0.00 0.00 0.00 68 1013.5
20260905001638 88 274 0.0 0.0 0.00 0.00 0.00 67 1013.5
20260905001111 89 274 0.0 0.0 0.00 0.00 0.00 66 1013.5
20260905000602 89 274 0.0 0.0 0.00 0.00 0.00 66 1013.5
20260905000035 89 274 0.0 0.0 0.00 0.00 0.00 65 1013.5
20260904235531 89 274 0.0 0.0 0.00 0.00 0.00 64 1013.5
20260904234527 90 274 0.0 0.0 0.00 0.00 0.00 63 1013.6
20260904234012 91 274 0.0 0.0 0.00 0.00 0.00 62 1013.6
20260904233513 91 274 0.0 0.0 0.00 0.00 0.00 61 1013.5
20260904233009 91 274 0.0 0.0 0.00 0.00 0.00 61 1013.5
20260904232506 92 274 0.0 0.0 0.00 0.00 0.00 61 1013.3
20260904231947 92 274 0.0 0.0 0.00 0.00 0.00 58 1013.3
20260904231447 92 274 0.0 0.0 0.00 0.00 0.00 59 1013.3
20260904230946 92 274 0.0 0.0 0.00 0.00 0.00 57 1013.2
20260904225939 93 274 0.0 0.0 0.00 0.00 0.00 57 1013.0
20260904225437 94 274 0.0 0.0 0.00 0.00 0.00 55 1013.0
20260904224910 94 274 0.0 0.0 0.00 0.00 0.00 55 1013.0
20260904224407 94 274 0.0 0.0 0.00 0.00 0.00 54 1013.0
20260904223346 94 242 0.0 1.0 0.00 0.00 0.00 53 1013.0
20260904222840 94 21 0.0 0.0 0.00 0.00 0.00 54 1012.9
20260904222340 94 269 0.0 0.0 0.00 0.00 0.00 53 1012.8
20260904220806 94 203 0.0 2.0 0.00 0.00 0.00 51 1012.8
20260904220311 94 232 0.0 2.0 0.00 0.00 0.00 51 1012.7
20260904215733 94 240 0.0 0.0 0.00 0.00 0.00 52 1012.7
20260904215207 94 240 0.0 0.0 0.00 0.00 0.00 53 1012.6
20260904214147 95 168 0.0 0.0 0.00 0.00 0.00 52 1012.7
20260904213646 95 172 0.0 0.0 0.00 0.00 0.00 52 1012.7
20260904213115 95 148 0.0 0.0 0.00 0.00 0.00 51 1012.8
20260904212613 95 148 0.0 2.0 0.00 0.00 0.00 50 1012.8
20260904212114 95 303 0.0 2.0 0.00 0.00 0.00 51 1012.8
20260904211550 95 242 0.0 4.0 0.00 0.00 0.00 51 1012.8
20260904211049 95 194 0.0 4.0 0.00 0.00 0.00 51 1012.8
20260904210525 95 257 0.0 1.0 0.00 0.00 0.00 51 1012.9
20260904205521 96 196 0.0 0.0 0.00 0.00 0.00 51 1012.8
20260904205003 96 230 0.0 4.0 0.00 0.00 0.00 51 1012.9
20260904204502 95 256 0.0 0.0 0.00 0.00 0.00 50 1013.0
20260904203940 95 121 0.0 4.0 0.00 0.00 0.00 51 1013.1
20260904202932 95 243 0.0 0.0 0.00 0.00 0.00 52 1013.2
20260904202434 95 296 0.0 0.0 0.00 0.00 0.00 52 1013.3
20260904201909 95 296 0.0 0.0 0.00 0.00 0.00 52 1013.3
20260904201359 96 220 0.0 0.0 0.00 0.00 0.00 51 1013.5
20260904200845 96 333 0.0 0.0 0.00 0.00 0.00 50 1013.5
20260904200345 96 333 0.0 0.0 0.00 0.00 0.00 51 1013.6
20260904194713 96 254 0.0 1.0 0.00 0.00 0.00 51 1013.8
20260904194211 97 253 0.0 1.0 0.00 0.00 0.00 50 1014.0
20260904193708 97 218 0.0 0.0 0.00 0.00 0.00 51 1013.9
20260904193206 97 155 0.0 1.0 0.00 0.00 0.00 51 1014.1
20260904192705 97 164 0.0 5.0 0.00 0.00 0.00 51 1014.2
20260904192143 97 269 0.0 5.0 0.00 0.00 0.00 50 1014.3
20260904191040 97 240 0.0 1.0 0.00 0.00 0.00 50 1014.5
20260904190539 97 206 0.0 1.0 0.00 0.00 0.00 50 1014.6
20260904190016 96 205 0.0 2.0 0.00 0.00 0.00 54 1014.6
20260904185519 95 325 0.0 2.0 0.00 0.00 0.00 52 1014.7
20260904184933 95 21 0.0 2.0 0.00 0.00 0.00 54 1014.8
20260904184431 94 226 0.0 0.0 0.00 0.00 0.00 54 1014.9
20260904183927 94 250 0.0 2.0 0.00 0.00 0.00 54 1014.9
20260904183423 94 188 0.0 2.0 0.00 0.00 0.00 57 1015.0
20260904182900 94 263 0.0 0.0 0.00 0.00 0.00 55 1015.0
20260904182359 95 255 0.0 0.0 0.00 0.00 0.00 55 1015.1
20260904181841 95 304 0.0 0.0 0.00 0.00 0.00 54 1015.2
20260904181313 94 159 0.0 0.0 0.00 0.00 0.00 56 1015.4
20260904180750 94 148 0.0 1.0 0.00 0.00 0.00 58 1015.4
20260904180248 94 148 0.0 7.0 0.00 0.00 0.00 56 1015.5
20260904175242 95 333 0.0 1.0 0.00 0.00 0.00 55 1015.6
20260904174710 95 237 0.0 4.0 0.00 0.00 0.00 54 1015.6
20260904174207 94 94 0.0 0.0 0.00 0.00 0.00 57 1015.6
20260904173641 94 134 0.0 0.0 0.00 0.00 0.00 56 1015.8
20260904173150 94 134 0.0 1.0 0.00 0.00 0.00 55 1015.8
20260904172637 94 134 0.0 1.0 0.00 0.00 0.00 56 1016.1
20260904172124 94 193 0.0 0.0 0.00 0.00 0.00 57 1016.1
20260904171623 95 190 0.0 0.0 0.00 0.00 0.00 55 1016.2
20260904171120 95 281 0.0 0.0 0.00 0.00 0.00 55 1016.2
20260904170555 95 281 0.0 0.0 0.00 0.00 0.00 55 1016.2
20260904170027 95 281 0.0 0.0 0.00 0.00 0.00 53 1016.3
20260904165524 95 303 0.0 0.0 0.00 0.00 0.00 57 1016.3
20260904164422 94 206 0.0 0.0 0.00 0.00 0.00 56 1016.3
20260904163920 94 207 0.0 0.0 0.00 0.00 0.00 58 1016.4
20260904163415 93 200 0.0 0.0 0.00 0.00 0.00 58 1016.5
20260904162913 93 145 0.0 0.0 0.00 0.00 0.00 58 1016.6
20260904162401 93 144 0.0 0.0 0.00 0.00 0.00 58 1016.6
20260904161352 93 147 0.0 1.0 0.00 0.00 0.00 58 1016.7
20260904160849 93 147 0.0 1.0 0.00 0.00 0.00 59 1016.7
20260904160346 93 146 0.0 1.0 0.00 0.00 0.00 58 1016.7
20260904155843 93 90 0.0 0.0 0.00 0.00 0.00 59 1016.8
20260904155317 92 123 0.0 0.0 0.00 0.00 0.00 62 1016.8
20260904154750 92 121 0.0 0.0 0.00 0.00 0.00 60 1016.8
20260904152628 91 173 0.0 0.0 0.00 0.00 0.00 64 1016.8
20260904152126 90 173 0.0 0.0 0.00 0.00 0.00 64 1016.7
20260904151605 90 172 0.0 0.0 0.00 0.00 0.00 64 1016.7
20260904151032 90 171 0.0 0.0 0.00 0.00 0.00 64 1016.7
20260904150530 89 170 0.0 0.0 0.00 0.00 0.00 68 1016.7
20260904145437 88 105 0.0 0.0 0.00 0.00 0.00 69 1016.6
20260904144923 87 105 0.0 0.0 0.00 0.00 0.00 72 1016.5
20260904144400 86 105 0.0 0.0 0.00 0.00 0.00 72 1016.6
20260904143858 85 105 0.0 0.0 0.00 0.00 0.00 79 1016.6
20260904143330 84 105 0.0 0.0 0.00 0.00 0.00 80 1016.6
20260904142827 83 105 0.0 0.0 0.00 0.00 0.00 80 1016.6
20260904142301 82 105 0.0 0.0 0.00 0.00 0.00 84 1016.5
20260904141734 82 105 0.0 0.0 0.00 0.00 0.00 87 1016.5
20260904141231 81 105 0.0 0.0 0.00 0.00 0.00 87 1016.6
20260904140224 80 105 0.0 0.0 0.00 0.00 0.00 91 1016.7
20260904135721 80 105 0.0 0.0 0.00 0.00 0.00 92 1016.6
20260904135155 79 105 0.0 0.0 0.00 0.00 0.00 95 1016.6
20260904134631 79 105 0.0 0.0 0.00 0.00 0.00 97 1016.6
20260904134122 78 105 0.0 0.0 0.00 0.00 0.00 97 1016.5
20260904133622 78 105 0.0 0.0 0.00 0.00 0.00 99 1016.5
20260904133045 77 105 0.0 0.0 0.00 0.00 0.00 99 1016.5
20260904132518 77 105 0.0 0.0 0.00 0.00 0.00 100 1016.5
20260904132028 77 105 0.0 0.0 0.00 0.00 0.00 100 1016.5
20260904131453 76 105 0.0 0.0 0.00 0.00 0.00 100 1016.5
20260904130952 76 105 0.0 0.0 0.00 0.00 0.00 100 1016.5
20260904130439 76 105 0.0 0.0 0.00 0.00 0.00 100 1016.5
20260904125927 76 105 0.0 0.0 0.00 0.00 0.00 100 1016.4
20260904124831 76 105 0.0 0.0 0.00 0.00 0.00 100 1016.3
20260904124328 76 105 0.0 0.0 0.00 0.00 0.00 100 1016.2
20260904123806 76 105 0.0 0.0 0.00 0.00 0.00 100 1016.3
20260904123313 75 105 0.0 0.0 0.00 0.00 0.00 100 1016.2
20260904122802 75 105 0.0 0.0 0.00 0.00 0.00 100 1016.1
20260904121721 75 105 0.0 0.0 0.00 0.00 0.00 100 1015.9
20260904121220 75 105 0.0 0.0 0.00 0.00 0.00 100 1015.8
20260904120653 75 105 0.0 0.0 0.00 0.00 0.00 100 1015.8
20260904120154 75 105 0.0 0.0 0.00 0.00 0.00 99 1015.8
20260904115652 75 105 0.0 0.0 0.00 0.00 0.00 99 1015.8
20260904115134 75 105 0.0 0.0 0.00 0.00 0.00 99 1015.7
20260904114633 75 105 0.0 0.0 0.00 0.00 0.00 99 1015.6
20260904113621 75 105 0.0 0.0 0.00 0.00 0.00 99 1015.6
20260904113100 75 105 0.0 0.0 0.00 0.00 0.00 99 1015.5
20260904112031 75 105 0.0 0.0 0.00 0.00 0.00 99 1015.4
20260904111530 75 105 0.0 0.0 0.00 0.00 0.00 99 1015.4
20260904111009 75 105 0.0 0.0 0.00 0.00 0.00 99 1015.3
20260904110503 75 105 0.0 0.0 0.00 0.00 0.00 99 1015.2
20260904105947 75 105 0.0 0.0 0.00 0.00 0.00 99 1015.2
20260904105423 75 105 0.0 0.0 0.00 0.00 0.00 99 1015.2
20260904104924 75 105 0.0 0.0 0.00 0.00 0.00 99 1015.2
20260904104423 75 105 0.0 0.0 0.00 0.00 0.00 99 1015.1
20260904103923 75 105 0.0 0.0 0.00 0.00 0.00 99 1015.2
20260904103407 76 105 0.0 0.0 0.00 0.00 0.00 99 1015.2
20260904102841 76 105 0.0 0.0 0.00 0.00 0.00 98 1015.2
20260904102324 76 105 0.0 0.0 0.00 0.00 0.00 98 1015.1
20260904101822 76 105 0.0 0.0 0.00 0.00 0.00 98 1015.1
20260904101257 76 105 0.0 0.0 0.00 0.00 0.00 98 1015.1
20260904100733 76 105 0.0 0.0 0.00 0.00 0.00 98 1015.0
20260904100222 76 105 0.0 0.0 0.00 0.00 0.00 98 1015.0
20260904095659 76 105 0.0 0.0 0.00 0.00 0.00 98 1014.9
20260904095133 76 105 0.0 0.0 0.00 0.00 0.00 98 1014.8
20260904094606 76 105 0.0 0.0 0.00 0.00 0.00 98 1014.8
20260904094040 76 105 0.0 0.0 0.00 0.00 0.00 98 1014.9
20260904093514 76 105 0.0 0.0 0.00 0.00 0.00 98 1014.8
20260904093007 76 105 0.0 0.0 0.00 0.00 0.00 98 1014.8
20260904092438 76 105 0.0 0.0 0.00 0.00 0.00 98 1014.9
20260904091432 76 105 0.0 0.0 0.00 0.00 0.00 98 1014.8
20260904090917 76 105 0.0 0.0 0.00 0.00 0.00 98 1014.8
20260904090415 76 105 0.0 0.0 0.00 0.00 0.00 98 1014.8
20260904084900 76 105 0.0 0.0 0.00 0.00 0.00 97 1014.8
20260904084333 76 105 0.0 0.0 0.00 0.00 0.00 97 1014.7
20260904083326 77 105 0.0 0.0 0.00 0.00 0.00 97 1014.8
20260904082807 77 105 0.0 0.0 0.00 0.00 0.00 97 1014.8
20260904082317 77 105 0.0 0.0 0.00 0.00 0.00 97 1014.8
20260904080204 77 105 0.0 0.0 0.00 0.00 0.00 97 1014.9
20260904075659 77 105 0.0 0.0 0.00 0.00 0.00 97 1014.9
20260904075123 77 105 0.0 0.0 0.00 0.00 0.00 97 1014.9
20260904074108 77 105 0.0 0.0 0.00 0.00 0.00 97 1014.9
20260904073610 77 105 0.0 0.0 0.00 0.00 0.00 97 1015.0
20260904073055 77 105 0.0 0.0 0.00 0.00 0.00 97 1015.0
20260904072556 77 105 0.0 0.0 0.00 0.00 0.00 97 1015.0
20260904070959 77 105 0.0 0.0 0.00 0.00 0.00 96 1014.9
20260904070457 77 105 0.0 0.0 0.00 0.00 0.00 96 1014.8
20260904065941 77 105 0.0 0.0 0.00 0.00 0.00 96 1014.8
20260904065441 77 105 0.0 0.0 0.00 0.00 0.00 96 1014.8
20260904064949 77 105 0.0 0.0 0.00 0.00 0.00 96 1014.8
20260904064434 77 105 0.0 0.0 0.00 0.00 0.00 96 1014.8
20260904063908 77 105 0.0 0.0 0.00 0.00 0.00 96 1014.8
20260904063342 77 105 0.0 0.0 0.00 0.00 0.00 95 1014.9
20260904062328 78 105 0.0 0.0 0.00 0.00 0.00 95 1015.0
20260904061802 78 105 0.0 0.0 0.00 0.00 0.00 95 1015.0
20260904060732 78 105 0.0 0.0 0.00 0.00 0.00 94 1014.9
20260904060207 78 105 0.0 0.0 0.00 0.00 0.00 94 1015.0
20260904054618 78 105 0.0 0.0 0.00 0.00 0.00 93 1014.9
20260904054050 78 105 0.0 0.0 0.00 0.00 0.00 93 1014.9
20260904053523 78 105 0.0 0.0 0.00 0.00 0.00 93 1014.9